Cumberland, WV

4:18 PM EDT on July 27, 2017 (GMT -0400)
Greater Cumberland Regional

Weather History for KCBE - August, 2013

Change the Weather History Date:

Saturday, August 31, 2013

  Actual Average (KMRB) Record (KMRB)
Temperature  
Mean Temperature 76 °F -  
Max Temperature 87 °F 83 °F 100 °F (1953)
Min Temperature 64 °F 60 °F 43 °F (1929)
Cooling Degree Days 10    
Growing Degree Days 26 (Base 50)    
Moisture  
Dew Point 67 °F    
Average Humidity 80    
Maximum Humidity 100    
Minimum Humidity 43    
Precipitation  
Precipitation 0.00 in - - ()
Sea Level Pressure  
Sea Level Pressure 29.90 in    
Wind  
Wind Speed 1 mph (South)    
Max Wind Speed 8 mph    
Max Gust Speed -    
Visibility 7 miles    
Events      
Averages and records for this station are not official NWS values.
T = Trace of Precipitation, MM = Missing Value Source: NWS Daily Summary

Daily Weather History Graph

Daily Weather History Graph

Search for Another Location

Airport or City:

Trip Planner

Search our weather history database for the weather conditions in past years. The results will help you decide how hot, cold, wet, or windy it might be!

Date:

Astronomy

Aug. 31, 2013 Rise Set
Actual Time 6:42 AM EDT 7:47 PM EDT
Civil Twilight 6:14 AM EDT 8:14 PM EDT
Nautical Twilight 5:41 AM EDT 8:47 PM EDT
Astronomical Twilight 5:07 AM EDT 9:22 PM EDT
Moon 2:10 AM EDT (8/31) 4:43 PM EDT (8/31)
Length of Visible Light 14h 00m
Length of Day
13h 04m
Waning Crescent, 21% of the Moon is Illuminated
Aug 31
Waning Crescent
Sep 5
New
Sep 12
First Quarter
Sep 19
Full
Sep 26
Last Quarter

Hourly Weather History & Observations

Time (EDT) Temp. Heat Index Dew Point Humidity Pressure Visibility Wind Dir Wind Speed Gust Speed Precip Events Conditions
12:17 AM 69.8 °F - 68.0 °F 94% 29.93 in 7.0 mi Calm Calm - N/A   Clear
12:37 AM 69.8 °F - 68.0 °F 94% 29.92 in 7.0 mi Calm Calm - N/A   Clear
12:57 AM 69.8 °F - 68.0 °F 94% 29.92 in 7.0 mi NNE 3.5 mph - N/A   Clear
1:17 AM 68.0 °F - 68.0 °F 100% 29.92 in 7.0 mi Calm Calm - N/A   Clear
1:37 AM 69.8 °F - 68.0 °F 94% 29.92 in 7.0 mi Calm Calm - N/A   Clear
1:57 AM 69.8 °F - 68.0 °F 94% 29.92 in 7.0 mi Calm Calm - N/A   Clear
2:17 AM 68.0 °F - 68.0 °F 100% 29.92 in 5.0 mi North 3.5 mph - N/A   Clear
2:37 AM 68.0 °F - 68.0 °F 100% 29.92 in 7.0 mi Calm Calm - N/A   Clear
2:57 AM 68.0 °F - 68.0 °F 100% 29.91 in 5.0 mi Calm Calm - N/A   Clear
3:17 AM 68.0 °F - 66.2 °F 94% 29.92 in 1.0 mi Calm Calm - N/A   Unknown
3:37 AM 68.0 °F - 66.2 °F 94% 29.92 in 1.2 mi Calm Calm - N/A   Mostly Cloudy
3:57 AM 68.0 °F - 66.2 °F 94% 29.92 in 4.0 mi Calm Calm - N/A   Scattered Clouds
4:17 AM 66.2 °F - 64.4 °F 94% 29.91 in 4.0 mi Calm Calm - N/A   Clear
4:37 AM 66.2 °F - 66.2 °F 100% 29.92 in 5.0 mi Calm Calm - N/A   Clear
4:57 AM 64.4 °F - 64.4 °F 100% 29.91 in 1.0 mi Calm Calm - N/A   Overcast
5:17 AM 64.4 °F - 64.4 °F 100% 29.91 in 0.2 mi Calm Calm - N/A   Overcast
5:37 AM 64.4 °F - 64.4 °F 100% 29.91 in 0.8 mi Calm Calm - N/A   Overcast
5:58 AM 66.2 °F - 64.4 °F 94% 29.91 in 0.2 mi Calm Calm - N/A   Overcast
6:18 AM 66.2 °F - 64.4 °F 94% 29.92 in 4.0 mi NE 3.5 mph - N/A   Overcast
6:38 AM 66.2 °F - 66.2 °F 100% 29.92 in 4.0 mi Calm Calm - N/A   Overcast
6:58 AM 66.2 °F - 64.4 °F 94% 29.92 in 3.0 mi Calm Calm - N/A   Overcast
7:18 AM 66.2 °F - 66.2 °F 100% 29.93 in 4.0 mi Calm Calm - N/A   Overcast
7:38 AM 66.2 °F - 66.2 °F 100% 29.93 in 3.0 mi Calm Calm - N/A   Overcast
7:58 AM 68.0 °F - 66.2 °F 94% 29.93 in 1.5 mi Calm Calm - N/A   Overcast
8:18 AM 68.0 °F - 68.0 °F 100% 29.94 in 2.5 mi Calm Calm - N/A   Overcast
8:38 AM 68.0 °F - 68.0 °F 100% 29.93 in 2.5 mi Calm Calm - N/A   Overcast
8:58 AM 68.0 °F - 68.0 °F 100% 29.93 in 0.5 mi Calm Calm - N/A   Overcast
9:18 AM 69.8 °F - 68.0 °F 94% 29.94 in 0.5 mi Calm Calm - N/A   Overcast
9:38 AM 69.8 °F - 69.8 °F 100% 29.93 in 1.5 mi Calm Calm - N/A   Overcast
9:58 AM 71.6 °F - 69.8 °F 94% 29.92 in 3.0 mi Calm Calm - N/A   Overcast
10:18 AM 73.4 °F - 69.8 °F 88% 29.92 in 4.0 mi Calm Calm - N/A   Scattered Clouds
10:38 AM 77.0 °F - 69.8 °F 78% 29.92 in 5.0 mi Calm Calm - N/A   Clear
10:58 AM 78.8 °F - 69.8 °F 74% 29.92 in 10.0 mi Calm Calm - N/A   Clear
11:18 AM 80.6 °F 83.9 °F 69.8 °F 70% 29.91 in 10.0 mi SE 4.6 mph - N/A   Scattered Clouds
11:38 AM 82.4 °F 86.3 °F 69.8 °F 66% 29.91 in 10.0 mi Calm Calm - N/A   Scattered Clouds
11:58 AM 84.2 °F 88.4 °F 69.8 °F 62% 29.90 in 10.0 mi South 3.5 mph - N/A   Clear
12:18 PM 86.0 °F 90.4 °F 69.8 °F 58% 29.89 in 10.0 mi SSE 4.6 mph - N/A   Clear
12:38 PM 86.0 °F 90.4 °F 69.8 °F 58% 29.89 in 10.0 mi South 5.8 mph - N/A   Scattered Clouds
12:58 PM 86.0 °F 90.4 °F 69.8 °F 58% 29.88 in 10.0 mi SSE 5.8 mph - N/A   Clear
1:18 PM 86.0 °F 90.4 °F 69.8 °F 58% 29.88 in 10.0 mi South 5.8 mph - N/A   Clear
1:38 PM 82.4 °F 86.3 °F 69.8 °F 66% 29.89 in 10.0 mi South 8.1 mph - N/A   Mostly Cloudy
1:58 PM 82.4 °F 86.3 °F 69.8 °F 66% 29.89 in 10.0 mi SSW 4.6 mph - N/A   Mostly Cloudy
2:18 PM 82.4 °F 86.3 °F 69.8 °F 66% 29.88 in 10.0 mi SSW 5.8 mph - N/A   Scattered Clouds
2:38 PM 84.2 °F 85.6 °F 64.4 °F 51% 29.88 in 10.0 mi WSW 6.9 mph - N/A   Clear
2:59 PM 87.8 °F 88.5 °F 62.6 °F 43% 29.88 in 10.0 mi West 4.6 mph - N/A   Clear
3:19 PM 86.0 °F 86.1 °F 60.8 °F 43% 29.87 in 10.0 mi NW 3.5 mph - N/A   Clear
3:39 PM 86.0 °F 86.1 °F 60.8 °F 43% 29.86 in 10.0 mi Calm Calm - N/A   Clear
3:59 PM 86.0 °F 87.3 °F 64.4 °F 48% 29.86 in 10.0 mi South 5.8 mph - N/A   Clear
4:19 PM 86.0 °F 86.6 °F 62.6 °F 45% 29.86 in 10.0 mi SSW 3.5 mph - N/A   Clear
4:39 PM 86.0 °F 86.6 °F 62.6 °F 45% 29.86 in 10.0 mi SSW 5.8 mph - N/A   Scattered Clouds
4:59 PM 86.0 °F 86.6 °F 62.6 °F 45% 29.86 in 10.0 mi South 6.9 mph - N/A   Mostly Cloudy
5:19 PM 82.4 °F 83.9 °F 64.4 °F 54% 29.86 in 10.0 mi SSW 5.8 mph - N/A   Mostly Cloudy
5:39 PM 82.4 °F 83.9 °F 64.4 °F 54% 29.85 in 10.0 mi South 3.5 mph - N/A   Scattered Clouds
5:59 PM 80.6 °F 82.7 °F 66.2 °F 61% 29.85 in 10.0 mi SE 3.5 mph - N/A   Mostly Cloudy
6:19 PM 80.6 °F 82.7 °F 66.2 °F 61% 29.85 in 10.0 mi Calm Calm - N/A   Overcast
6:39 PM 82.4 °F 83.9 °F 64.4 °F 54% 29.84 in 10.0 mi SSW 3.5 mph - N/A   Overcast
6:59 PM 82.4 °F 85.4 °F 68.0 °F 62% 29.85 in 10.0 mi South 3.5 mph - N/A   Scattered Clouds
7:19 PM 80.6 °F 83.2 °F 68.0 °F 65% 29.85 in 10.0 mi Calm Calm - N/A   Clear
7:39 PM 78.8 °F - 69.8 °F 74% 29.86 in 10.0 mi Calm Calm - N/A   Clear
7:59 PM 77.0 °F - 69.8 °F 78% 29.87 in 10.0 mi Calm Calm - N/A   Clear
8:19 PM 77.0 °F - 69.8 °F 78% 29.88 in 10.0 mi Calm Calm - N/A   Scattered Clouds
8:39 PM 75.2 °F - 69.8 °F 83% 29.89 in 10.0 mi East 5.8 mph - N/A   Clear
8:59 PM 73.4 °F - 69.8 °F 88% 29.90 in 10.0 mi WNW 3.5 mph - N/A   Scattered Clouds
9:19 PM 75.2 °F - 69.8 °F 83% 29.90 in 10.0 mi Calm Calm - N/A   Clear
9:39 PM 71.6 °F - 68.0 °F 88% 29.90 in 10.0 mi Calm Calm - N/A   Clear
9:59 PM 71.6 °F - 69.8 °F 94% 29.89 in 10.0 mi Calm Calm - N/A   Clear
10:19 PM 71.6 °F - 68.0 °F 88% 29.89 in 10.0 mi Calm Calm - N/A   Clear
10:39 PM 71.6 °F - 68.0 °F 88% 29.89 in 10.0 mi Calm Calm - N/A   Scattered Clouds
10:59 PM 71.6 °F - 68.0 °F 88% 29.90 in 10.0 mi Calm Calm - N/A   Scattered Clouds
11:20 PM 69.8 °F - 68.0 °F 94% 29.90 in 10.0 mi Calm Calm - N/A   Clear
11:40 PM 69.8 °F - 68.0 °F 94% 29.90 in 5.0 mi Calm Calm - N/A   Clear